Find El Camino Real

NORAD ID: 44408 Int'l Des: 2019-038 Owner: MOMENT Country: US operational
LEOCIRCULARRETROGRADE

Live Position

Loading 3D Globe...

About El Camino Real

Description loading...

Upcoming Passes

Passes for default location (London). Set your location on the main map for personalized predictions.

Altitude History

Loading altitude history...

Two-Line Element Set

1 44408U 19038Y 26103.61871097 .00020327 00000-0 23678-3 0 9995
2 44408 97.6843 143.3391 0007363 240.5596 119.4927 15.61690730376460
Epoch: Apr 13, 2026 • Age: 32 hours

Current Status

Altitude 392.4 km
Velocity 7.68 km/s
Sub-Earth Point 36.52°N, 53.53°W
Launch Date Jul 5, 2019
Age 6.7 years
Type other

Technical Details

Classification Payload
Mass 20.00 kg
Dry Mass 20.00 kg
Total Mass 20.00 kg
Length 0.40 m
Diameter 0.20 m
Span 0.40 m
Shape Box
Manufacturer ADIG
Bus Type Cubesat 16U
Phase Status In Orbit
Owner/State MOMENT/US

Most Searched